NOZ200 ENGM-ENVA

Flight info

Callsign NOZ200
Flight time 0h 39m
Altitude 30000
Route RIBBE DCT GIGNI DCT VEVOD
Aircraft B738/M-SDE2E3FGHIRWXY/LB1

Departure

Time 2026-05-03 21:30
Airport Oslo-Gardermoen International Airport (ENGM)

Arrival

Time 2026-05-03 22:09
Airport Trondheim Airport, Værnes (ENVA)
Time Latitude Longitude Altitude Speed Heading
2026-05-03 21:07 60.19565 11.09428 681 ft 0 kts 195°
2026-05-03 21:19 60.19571 11.09431 664 ft 3 kts 195°
2026-05-03 21:20 60.19589 11.09441 686 ft 3 kts 195°
2026-05-03 21:20 60.19607 11.09451 683 ft 3 kts 195°
2026-05-03 21:20 60.19611 11.09454 687 ft 0 kts 195°
2026-05-03 21:23 60.19607 11.09444 683 ft 2 kts 231°
2026-05-03 21:23 60.19611 11.09426 700 ft 2 kts 323°
2026-05-03 21:24 60.19659 11.09399 683 ft 12 kts 337°
2026-05-03 21:24 60.19706 11.09223 685 ft 17 kts 285°
2026-05-03 21:24 60.19738 11.08998 682 ft 16 kts 286°
2026-05-03 21:24 60.19769 11.08784 685 ft 13 kts 285°
2026-05-03 21:25 60.19818 11.08703 686 ft 10 kts
2026-05-03 21:25 60.19906 11.08750 689 ft 17 kts 16°
2026-05-03 21:25 60.20040 11.08826 685 ft 22 kts 16°
2026-05-03 21:25 60.20185 11.08909 689 ft 21 kts 16°
2026-05-03 21:26 60.20324 11.08989 685 ft 21 kts 16°
2026-05-03 21:26 60.20460 11.09067 684 ft 20 kts 15°
2026-05-03 21:26 60.20592 11.09142 684 ft 19 kts 16°
2026-05-03 21:26 60.20720 11.09215 686 ft 19 kts 16°
2026-05-03 21:27 60.20843 11.09284 686 ft 18 kts 15°
2026-05-03 21:27 60.20967 11.09355 685 ft 20 kts 16°
2026-05-03 21:27 60.21105 11.09434 688 ft 22 kts 16°
2026-05-03 21:27 60.21250 11.09517 689 ft 21 kts 15°
2026-05-03 21:28 60.21390 11.09598 689 ft 20 kts 16°
2026-05-03 21:28 60.21496 11.09619 688 ft 15 kts 338°
2026-05-03 21:28 60.21548 11.09455 687 ft 14 kts 286°
2026-05-03 21:28 60.21574 11.09269 685 ft 14 kts 285°
2026-05-03 21:29 60.21538 11.09123 688 ft 13 kts 198°
2026-05-03 21:29 60.21394 11.09039 689 ft 50 kts 195°
2026-05-03 21:29 60.20753 11.08673 687 ft 138 kts 195°
2026-05-03 21:29 60.19653 11.08056 1092 ft 182 kts 193°
2026-05-03 21:30 60.18406 11.07427 2256 ft 182 kts 194°
2026-05-03 21:30 60.17191 11.06593 3128 ft 196 kts 208°
2026-05-03 21:30 60.16183 11.04500 3455 ft 221 kts 235°
2026-05-03 21:30 60.15464 11.01682 4038 ft 230 kts 244°
2026-05-03 21:31 60.14822 10.98718 4740 ft 233 kts 246°
2026-05-03 21:31 60.14321 10.95522 5231 ft 249 kts 264°
2026-05-03 21:31 60.14379 10.91982 6009 ft 257 kts 278°
2026-05-03 21:31 60.14699 10.88476 7091 ft 255 kts 280°
2026-05-03 21:32 60.15085 10.84983 8028 ft 259 kts 288°
2026-05-03 21:32 60.16056 10.81910 8987 ft 267 kts 313°
2026-05-03 21:32 60.17619 10.79842 9930 ft 276 kts 334°
2026-05-03 21:32 60.19580 10.79138 10400 ft 305 kts 359°
2026-05-03 21:33 60.21778 10.79958 10619 ft 336 kts 11°
2026-05-03 21:33 60.24096 10.81233 11077 ft 352 kts 12°
2026-05-03 21:33 60.26477 10.82638 11801 ft 359 kts 13°
2026-05-03 21:33 60.28896 10.84085 12587 ft 365 kts 13°
2026-05-03 21:34 60.31352 10.85544 13363 ft 371 kts 12°
2026-05-03 21:34 60.33842 10.87007 14093 ft 376 kts 12°
2026-05-03 21:34 60.36366 10.88477 14832 ft 379 kts 11°
2026-05-03 21:34 60.38920 10.89956 15522 ft 384 kts 11°
2026-05-03 21:35 60.41509 10.91448 16194 ft 390 kts 11°
2026-05-03 21:35 60.44135 10.92959 16857 ft 395 kts 11°
2026-05-03 21:35 60.46793 10.94488 17546 ft 400 kts 11°
2026-05-03 21:35 60.49485 10.96040 18211 ft 404 kts 11°
2026-05-03 21:36 60.52202 10.97608 18800 ft 408 kts 10°
2026-05-03 21:36 60.54911 10.99176 19426 ft 411 kts 10°
2026-05-03 21:36 60.57712 11.00801 20049 ft 415 kts 10°
2026-05-03 21:36 60.60504 11.02423 20714 ft 417 kts 11°
2026-05-03 21:37 60.63259 11.04028 21388 ft 419 kts 11°
2026-05-03 21:37 60.66073 11.05670 21935 ft 423 kts 10°
2026-05-03 21:37 60.68916 11.07327 22451 ft 427 kts 10°
2026-05-03 21:37 60.71790 11.09006 23002 ft 431 kts 10°
2026-05-03 21:38 60.74687 11.10702 23530 ft 434 kts 10°
2026-05-03 21:38 60.77611 11.12417 23959 ft 438 kts 10°
2026-05-03 21:38 60.80558 11.14149 24378 ft 442 kts 10°
2026-05-03 21:38 60.83529 11.15898 24790 ft 446 kts
2026-05-03 21:39 60.86519 11.17662 25206 ft 449 kts
2026-05-03 21:39 60.89530 11.19443 25714 ft 451 kts 10°
2026-05-03 21:39 60.92555 11.21238 26193 ft 452 kts 10°
2026-05-03 21:39 60.95593 11.23042 26568 ft 456 kts 10°
2026-05-03 21:40 60.98655 11.24863 26927 ft 460 kts 10°
2026-05-03 21:40 61.01737 11.26699 27303 ft 463 kts 10°
2026-05-03 21:40 61.04844 11.28557 27775 ft 463 kts 10°
2026-05-03 21:40 61.07933 11.30411 28342 ft 462 kts 10°
2026-05-03 21:41 61.11018 11.32264 28876 ft 461 kts
2026-05-03 21:41 61.14100 11.34116 29402 ft 460 kts
2026-05-03 21:41 61.17174 11.35966 29810 ft 462 kts
2026-05-03 21:41 61.20277 11.37833 29783 ft 465 kts
2026-05-03 21:42 61.26457 11.41579 29778 ft 459 kts
2026-05-03 21:42 61.32599 11.45308 29799 ft 461 kts
2026-05-03 21:43 61.38811 11.48387 29784 ft 454 kts 358°
2026-05-03 21:43 61.45054 11.48570 29801 ft 448 kts 352°
2026-05-03 21:44 61.51285 11.48425 29779 ft 447 kts 352°
2026-05-03 21:44 61.57489 11.48370 29782 ft 445 kts 352°
2026-05-03 21:45 61.63671 11.48380 29731 ft 442 kts 352°
2026-05-03 21:45 61.66737 11.48395 29333 ft 436 kts 352°
2026-05-03 21:45 61.69741 11.48415 28860 ft 429 kts 352°
2026-05-03 21:46 61.72700 11.48429 28435 ft 423 kts 352°
2026-05-03 21:46 61.75635 11.48440 28014 ft 419 kts 352°
2026-05-03 21:46 61.78537 11.48447 27512 ft 416 kts 352°
2026-05-03 21:46 61.81418 11.48453 27039 ft 413 kts 352°
2026-05-03 21:47 61.84279 11.48459 26587 ft 410 kts 352°
2026-05-03 21:47 61.87118 11.48467 26133 ft 407 kts 352°
2026-05-03 21:47 61.89940 11.48474 25693 ft 404 kts 352°
2026-05-03 21:47 61.92747 11.48481 25230 ft 402 kts 352°
2026-05-03 21:48 61.95502 11.48489 24789 ft 400 kts 352°
2026-05-03 21:48 61.98269 11.48499 24357 ft 397 kts 352°
2026-05-03 21:48 62.01015 11.48378 23950 ft 389 kts 347°
2026-05-03 21:48 62.03677 11.47869 23607 ft 381 kts 345°
2026-05-03 21:49 62.06305 11.47243 23214 ft 378 kts 344°
2026-05-03 21:49 62.08916 11.46583 22699 ft 377 kts 344°
2026-05-03 21:49 62.11517 11.45928 22240 ft 375 kts 344°
2026-05-03 21:49 62.14106 11.45289 21806 ft 373 kts 344°
2026-05-03 21:50 62.16684 11.44665 21368 ft 371 kts 345°
2026-05-03 21:50 62.19246 11.44055 20932 ft 369 kts 345°
2026-05-03 21:50 62.21790 11.43455 20525 ft 367 kts 345°
2026-05-03 21:50 62.24324 11.42862 20100 ft 365 kts 345°
2026-05-03 21:51 62.26841 11.42279 19671 ft 364 kts 345°
2026-05-03 21:51 62.29355 11.41684 19254 ft 362 kts 345°
2026-05-03 21:51 62.31855 11.41090 18850 ft 361 kts 345°
2026-05-03 21:51 62.34341 11.40501 18425 ft 359 kts 345°
2026-05-03 21:52 62.36825 11.39914 18037 ft 357 kts 346°
2026-05-03 21:52 62.39290 11.39329 17548 ft 356 kts 346°
2026-05-03 21:52 62.41750 11.38746 17088 ft 354 kts 346°
2026-05-03 21:52 62.44190 11.38169 16681 ft 351 kts 346°
2026-05-03 21:53 62.46606 11.37596 16274 ft 348 kts 346°
2026-05-03 21:53 62.49006 11.37024 15873 ft 347 kts 346°
2026-05-03 21:53 62.51397 11.36454 15438 ft 345 kts 346°
2026-05-03 21:53 62.53775 11.35885 15040 ft 343 kts 346°
2026-05-03 21:54 62.55345 11.35509 14783 ft 342 kts 346°
2026-05-03 21:54 62.57705 11.34943 14377 ft 341 kts 347°
2026-05-03 21:54 62.60057 11.34378 13978 ft 340 kts 347°
2026-05-03 21:54 62.62400 11.33815 13565 ft 338 kts 347°
2026-05-03 21:55 62.64737 11.33252 13121 ft 337 kts 347°
2026-05-03 21:55 62.67810 11.32511 12604 ft 334 kts 347°
2026-05-03 21:55 62.69370 11.32134 12322 ft 333 kts 348°
2026-05-03 21:55 62.71670 11.31578 11905 ft 331 kts 348°
2026-05-03 21:56 62.73949 11.31026 11527 ft 329 kts 348°
2026-05-03 21:56 62.76215 11.30477 11101 ft 327 kts 348°
2026-05-03 21:56 62.78466 11.29931 10717 ft 324 kts 348°
2026-05-03 21:56 62.80697 11.29389 10345 ft 321 kts 348°
2026-05-03 21:57 62.82879 11.28861 10196 ft 310 kts 348°
2026-05-03 21:57 62.85000 11.28427 10079 ft 302 kts 351°
2026-05-03 21:57 62.87075 11.28111 9943 ft 295 kts 351°
2026-05-03 21:57 62.89097 11.27826 9829 ft 288 kts 351°
2026-05-03 21:58 62.91083 11.27543 9588 ft 286 kts 351°
2026-05-03 21:58 62.93064 11.27253 9278 ft 285 kts 351°
2026-05-03 21:58 62.95033 11.26958 8998 ft 282 kts 351°
2026-05-03 21:58 62.96960 11.26666 8709 ft 282 kts 351°
2026-05-03 21:59 62.98912 11.26367 8410 ft 281 kts 352°
2026-05-03 21:59 63.00858 11.26069 8124 ft 279 kts 352°
2026-05-03 21:59 63.02783 11.25774 7959 ft 273 kts 351°
2026-05-03 21:59 63.04671 11.25484 7719 ft 271 kts 352°
2026-05-03 22:00 63.06558 11.25190 7445 ft 272 kts 352°
2026-05-03 22:00 63.08447 11.24894 7178 ft 273 kts 352°
2026-05-03 22:00 63.10348 11.24595 6867 ft 274 kts 352°
2026-05-03 22:00 63.12244 11.24296 6581 ft 272 kts 352°
2026-05-03 22:01 63.14128 11.24006 6313 ft 271 kts 353°
2026-05-03 22:01 63.15997 11.23712 6066 ft 266 kts 353°
2026-05-03 22:01 63.17828 11.23427 5738 ft 261 kts 353°
2026-05-03 22:01 63.19618 11.23151 5446 ft 254 kts 353°
2026-05-03 22:02 63.21364 11.22878 5195 ft 251 kts 354°
2026-05-03 22:02 63.23105 11.22603 4943 ft 250 kts 354°
2026-05-03 22:02 63.24834 11.22333 4687 ft 248 kts 355°
2026-05-03 22:02 63.26550 11.22063 4432 ft 246 kts 354°
2026-05-03 22:03 63.28252 11.21793 4165 ft 245 kts 355°
2026-05-03 22:03 63.29929 11.21529 4058 ft 238 kts 355°
2026-05-03 22:03 63.31567 11.21292 3949 ft 234 kts 356°
2026-05-03 22:03 63.33176 11.21277 3859 ft 228 kts 358°
2026-05-03 22:04 63.34757 11.21301 3770 ft 227 kts 358°
2026-05-03 22:04 63.36339 11.21315 3659 ft 225 kts 358°
2026-05-03 22:04 63.37853 11.21331 3525 ft 212 kts 358°
2026-05-03 22:04 63.39281 11.21339 3325 ft 197 kts 357°
2026-05-03 22:05 63.40608 11.21336 3116 ft 186 kts 356°
2026-05-03 22:05 63.41856 11.20995 2889 ft 181 kts 343°
2026-05-03 22:05 63.42998 11.19974 2679 ft 172 kts 328°
2026-05-03 22:05 63.43939 11.18423 2466 ft 166 kts 315°
2026-05-03 22:06 63.44700 11.16486 2264 ft 166 kts 305°
2026-05-03 22:06 63.45291 11.14310 2048 ft 158 kts 294°
2026-05-03 22:06 63.45630 11.12016 1812 ft 155 kts 281°
2026-05-03 22:06 63.45733 11.09634 1592 ft 153 kts 270°
2026-05-03 22:07 63.45732 11.07341 1382 ft 141 kts 270°
2026-05-03 22:07 63.45737 11.05115 1149 ft 142 kts 270°
2026-05-03 22:07 63.45738 11.02922 938 ft 140 kts 268°
2026-05-03 22:07 63.45735 11.00755 720 ft 138 kts 268°
2026-05-03 22:08 63.45735 10.98588 561 ft 141 kts 269°
2026-05-03 22:08 63.45748 10.96437 335 ft 137 kts 270°
2026-05-03 22:08 63.45754 10.94317 110 ft 135 kts 270°
2026-05-03 22:08 63.45761 10.92382 41 ft 103 kts 270°
2026-05-03 22:09 63.45762 10.91260 35 ft 41 kts 270°
2026-05-03 22:09 63.45759 10.90787 33 ft 29 kts 262°
2026-05-03 22:09 63.45707 10.90444 32 ft 18 kts 232°
2026-05-03 22:10 63.45599 10.90463 32 ft 8 kts 93°
2026-05-03 22:10 63.45597 10.90608 33 ft 11 kts 91°
2026-05-03 22:10 63.45596 10.90813 34 ft 15 kts 90°
2026-05-03 22:10 63.45597 10.91045 34 ft 15 kts 90°
2026-05-03 22:11 63.45596 10.91270 36 ft 14 kts 89°
2026-05-03 22:11 63.45588 10.91451 37 ft 10 kts 124°
2026-05-03 22:11 63.45531 10.91486 38 ft 6 kts 179°
2026-05-03 22:11 63.45504 10.91486 38 ft 2 kts 179°
2026-05-03 22:12 63.45500 10.91486 36 ft 0 kts 179°